Location: Albany
(35.0000°S, 118.0000°E)
Time: 17:54:49
(UTC-04:00)

Envisat - Visible Passes

Search period start: 24 June 2021 00:00
Search period end: 04 July 2021 00:00
Orbit: 764 x 766 km, 98.1° (Epoch: 24 June)

Date Brightness Start Highest point End Pass type
(mag) Time Alt. Az. Time Alt. Az. Time Alt. Az.
24 Jun 5.7 06:52:40 10° SSW 06:55:30 15° WSW 06:58:19 10° W visible
24 Jun 4.4 16:23:01 10° NNE 16:25:58 33° NE 16:25:58 33° NE visible
24 Jun 4.7 18:04:26 10° NW 18:06:09 14° WNW 18:06:09 14° WNW visible
25 Jun 4.7 06:14:28 10° S 06:19:02 33° WSW 06:23:34 10° NW visible
25 Jun 5.6 15:47:24 10° ENE 15:48:39 15° ENE 15:48:39 15° ENE visible
25 Jun 3.9 17:25:32 10° NNW 17:28:50 30° NW 17:28:50 30° NW visible
26 Jun 3.2 05:37:14 10° S 05:42:23 78° WSW 05:47:29 10° NNW visible
26 Jun 3.8 16:48:09 10° NNE 16:51:31 43° N 16:51:31 43° N visible
27 Jun 5.5 06:40:37 10° SSW 06:44:10 19° WSW 06:47:41 10° WNW visible
27 Jun 4.9 16:11:47 10° NE 16:14:13 26° ENE 16:14:13 26° ENE visible
27 Jun 4.5 17:52:04 10° NW 17:54:24 18° WNW 17:54:24 18° WNW visible
28 Jun 4.2 06:02:48 10° S 06:07:39 43° WSW 06:12:26 10° NW visible
28 Jun 5.9 15:36:35 10° ENE 15:36:55 11° ENE 15:36:55 11° ENE visible
28 Jun 3.8 17:13:47 10° N 17:17:06 35° NW 17:17:06 35° NW visible
29 Jun 3.0 05:25:45 10° SSE 05:30:56 82° ENE 05:36:01 10° N visible
29 Jun 6.0 07:08:12 10° SW 07:09:10 10° WSW 07:10:09 10° WSW visible
29 Jun 4.1 16:36:43 10° NNE 16:39:48 38° NNE 16:39:48 38° NNE visible
30 Jun 5.2 06:28:43 10° SSW 06:32:48 24° WSW 06:36:50 10° WNW visible
30 Jun 5.3 16:00:39 10° NE 16:02:30 20° ENE 16:02:30 20° ENE visible
30 Jun 4.3 17:39:59 10° NNW 17:42:41 22° WNW 17:42:41 22° WNW visible
01 Jul 3.8 05:51:12 10° S 05:56:13 55° WSW 06:01:11 10° NNW visible
01 Jul 3.8 17:02:08 10° N 17:05:23 38° NNW 17:05:23 38° NNW visible
02 Jul 5.7 06:55:21 10° SW 06:57:52 14° WSW 07:00:22 10° W visible
02 Jul 4.5 16:25:22 10° NNE 16:28:06 31° NE 16:28:06 31° NE visible
02 Jul 4.9 18:07:14 10° WNW 18:08:17 12° WNW 18:08:17 12° WNW visible
03 Jul 4.8 06:16:57 10° S 06:21:25 31° WSW 06:25:51 10° NW visible
03 Jul 5.6 15:49:38 10° ENE 15:50:48 15° ENE 15:50:48 15° ENE visible
03 Jul 4.1 17:28:04 10° NNW 17:30:59 27° NW 17:30:59 27° NW visible
